Find Starlink 30939

NORAD ID: 58393 Int'l Des: 2023-178 Owner: SPXS Country: US Constellation: starlink operational
LEOCIRCULAR

Live Position

Loading 3D Globe...

About Starlink 30939

Description loading...

Upcoming Passes

Passes for default location (London). Set your location on the main map for personalized predictions.

Altitude History

Loading altitude history...

Two-Line Element Set

1 58393U 23178V 26132.80044231 .00000020 00000-0 11736-4 0 9999
2 58393 53.1621 62.8178 0001442 80.9804 279.1361 15.34395064139585
Epoch: May 12, 2026 • Age: 8 hours

Current Status

Altitude 463.3 km
Velocity 7.64 km/s
Sub-Earth Point 24.56°N, 64.74°W
Launch Date Nov 20, 2023
Age 2.4 years
Type internet

Technical Details

Classification Payload
Mass 730.00 kg
Dry Mass 700.00 kg
Total Mass 730.00 kg
Length 0.30 m
Diameter 4.10 m
Span 29.00 m
Shape Box + pan
Manufacturer SPXS
Bus Type Starlink V2M
Phase Status In Orbit
Owner/State SPXS/US

Most Searched